When you browse on this site, cookies collect data to enhance your experience and personalize the content and advertising you see.
Visit our Privacy Policy to learn more. By continuing to use the site, you agree to this use of cookies and data.
  • In Czech Republic
  • List of Countries
  • For 7 days
  • Water Temperature
  • Satellite Maps
  • Weather Map
  • Weather Widgets
  • user-avatar
    Login

    Hourly Weather Nottingham

    Today, 19 November, Monday

    Time Temperature Precipitation Wind Pressure Humidity
    00:00 +4°C° 0 mm 4 mps 765 mmHg 86%
    01:00 +5°C° 0 mm 4 mps 765 mmHg 87%
    02:00 +5°C° 0 mm 4 mps 764 mmHg 87%
    03:00 +5°C° 0 mm 4 mps 764 mmHg 88%
    04:00 +5°C° 0 mm 5 mps 764 mmHg 85%
    05:00 +6°C° 0 mm 5 mps 763 mmHg 82%
    06:00 +6°C° 0 mm 5 mps 763 mmHg 80%
    07:00 +6°C° 0 mm 5 mps 763 mmHg 78%
    08:00 +6°C° 0 mm 5 mps 763 mmHg 77%
    09:00 +6°C° 0 mm 5 mps 763 mmHg 75%
    10:00 +6°C° 0 mm 5 mps 763 mmHg 75%
    11:00 +6°C° 0 mm 5 mps 762 mmHg 74%
    12:00 +7°C° 0 mm 5 mps 762 mmHg 74%
    13:00 +7°C° 0.1 mm 5 mps 762 mmHg 74%
    14:00 +7°C° 0.1 mm 6 mps 761 mmHg 74%
    15:00 +5°C° 0.1 mm 6 mps 761 mmHg 73%
    16:00 +5°C° 0.1 mm 6 mps 761 mmHg 74%
    17:00 +5°C° 0.1 mm 6 mps 760 mmHg 75%
    18:00 +5°C° 0.1 mm 6 mps 760 mmHg 76%
    19:00 +5°C° 0.1 mm 6 mps 760 mmHg 76%
    20:00 +5°C° 0.1 mm 6 mps 760 mmHg 76%
    21:00 +5°C° 0.1 mm 6 mps 759 mmHg 76%
    22:00 +4°C° 0.2 mm 6 mps 759 mmHg 76%
    23:00 +4°C° 0.2 mm 6 mps 759 mmHg 76%

    Tomorrow, 20 November, Tuesday

    Time Temperature Precipitation Wind Pressure Humidity
    00:00 +5°C° 0.2 mm 5 mps 758 mmHg 76%
    01:00 +5°C° 0.1 mm 5 mps 758 mmHg 75%
    02:00 +3°C° 0.1 mm 5 mps 758 mmHg 75%
    03:00 +3°C° 0.1 mm 5 mps 758 mmHg 74%
    04:00 +3°C° 0 mm 5 mps 757 mmHg 74%
    05:00 +3°C° 0 mm 5 mps 757 mmHg 75%
    06:00 +3°C° 0 mm 5 mps 756 mmHg 75%
    07:00 +3°C° 0 mm 5 mps 756 mmHg 75%
    08:00 +3°C° 0 mm 5 mps 756 mmHg 75%
    09:00 +3°C° 0 mm 6 mps 756 mmHg 75%
    10:00 +4°C° 0.1 mm 6 mps 755 mmHg 74%
    11:00 +4°C° 0.1 mm 7 mps 755 mmHg 72%
    12:00 +5°C° 0.1 mm 7 mps 754 mmHg 71%
    13:00 +4°C° 0.3 mm 7 mps 754 mmHg 73%
    14:00 +4°C° 0.3 mm 6 mps 753 mmHg 75%
    15:00 +4°C° 0.3 mm 6 mps 753 mmHg 77%
    16:00 +5°C° 0.3 mm 5 mps 752 mmHg 78%
    17:00 +3°C° 0.3 mm 5 mps 752 mmHg 80%
    18:00 +4°C° 0.3 mm 4 mps 752 mmHg 81%
    19:00 +4°C° 0.1 mm 4 mps 752 mmHg 81%
    20:00 +4°C° 0.1 mm 4 mps 752 mmHg 82%
    21:00 +4°C° 0.1 mm 3 mps 752 mmHg 82%
    22:00 +4°C° 0.2 mm 3 mps 751 mmHg 83%
    23:00 +3°C° 0.2 mm 3 mps 751 mmHg 85%

    Day after tomorrow, 21 November, Wednesday

    Time Temperature Precipitation Wind Pressure Humidity
    00:00 +3°C° 0.2 mm 3 mps 751 mmHg 86%
    01:00 +3°C° 0.4 mm 3 mps 750 mmHg 87%
    02:00 +3°C° 0.4 mm 3 mps 750 mmHg 88%
    03:00 +3°C° 0.4 mm 3 mps 750 mmHg 89%
    04:00 +3°C° 0.2 mm 3 mps 750 mmHg 90%
    05:00 +4°C° 0.2 mm 2 mps 750 mmHg 90%
    06:00 +4°C° 0.2 mm 2 mps 750 mmHg 90%
    07:00 +3°C° 0.1 mm 3 mps 750 mmHg 89%
    08:00 +3°C° 0.1 mm 3 mps 751 mmHg 89%
    09:00 +3°C° 0.1 mm 4 mps 751 mmHg 88%
    10:00 +4°C° 0 mm 4 mps 752 mmHg 84%
    11:00 +4°C° 0 mm 4 mps 753 mmHg 80%
    12:00 +5°C° 0 mm 4 mps 753 mmHg 76%
    13:00 +5°C° 0 mm 4 mps 754 mmHg 76%
    14:00 +5°C° 0 mm 4 mps 754 mmHg 77%
    15:00 +5°C° 0 mm 3 mps 755 mmHg 77%
    16:00 +5°C° 0 mm 3 mps 756 mmHg 80%
    17:00 +4°C° 0 mm 3 mps 756 mmHg 84%
    18:00 +3°C° 0 mm 3 mps 757 mmHg 87%
    19:00 +3°C° 0 mm 3 mps 758 mmHg 87%
    20:00 +3°C° 0 mm 3 mps 758 mmHg 88%
    21:00 +2°C° 0 mm 3 mps 759 mmHg 88%
    22:00 +3°C° 0 mm 2 mps 759 mmHg 89%
    23:00 +3°C° 0 mm 2 mps 759 mmHg 89%

    22 November, Thursday

    Time Temperature Precipitation Wind Pressure Humidity
    00:00 +2°C° 0 mm 2 mps 760 mmHg 89%
    01:00 +2°C° 0 mm 2 mps 760 mmHg 89%
    02:00 +3°C° 0 mm 1 mps 760 mmHg 89%
    03:00 +3°C° 0 mm 1 mps 760 mmHg 89%
    04:00 +3°C° 0 mm 1 mps 760 mmHg 89%
    05:00 +3°C° 0 mm 1 mps 760 mmHg 88%
    06:00 +2°C° 0 mm 1 mps 760 mmHg 88%
    07:00 +3°C° 0 mm 1 mps 760 mmHg 87%
    08:00 +3°C° 0 mm 1 mps 760 mmHg 86%
    09:00 +4°C° 0 mm 1 mps 760 mmHg 85%
    10:00 +5°C° 0 mm 1 mps 760 mmHg 83%
    11:00 +6°C° 0 mm 1 mps 760 mmHg 82%
    12:00 +7°C° 0 mm 1 mps 760 mmHg 80%
    13:00 +7°C° 0 mm 1 mps 759 mmHg 83%
    14:00 +7°C° 0 mm 1 mps 759 mmHg 85%
    15:00 +6°C° 0 mm 0 mps 759 mmHg 88%
    16:00 +7°C° 0 mm 1 mps 759 mmHg 89%
    17:00 +6°C° 0 mm 1 mps 759 mmHg 91%
    18:00 +6°C° 0 mm 1 mps 759 mmHg 92%
    19:00 +6°C° 0 mm 1 mps 759 mmHg 93%
    20:00 +5°C° 0 mm 1 mps 759 mmHg 93%
    21:00 +5°C° 0 mm 1 mps 759 mmHg 94%
    22:00 +5°C° 0 mm 1 mps 759 mmHg 94%
    23:00 +5°C° 0 mm 1 mps 759 mmHg 95%

    23 November, Friday

    Time Temperature Precipitation Wind Pressure Humidity
    00:00 +5°C° 0 mm 1 mps 759 mmHg 95%
    01:00 +4°C° 0 mm 1 mps 759 mmHg 95%
    02:00 +4°C° 0 mm 1 mps 759 mmHg 94%
    03:00 +4°C° 0 mm 1 mps 759 mmHg 94%
    04:00 +3°C° 0 mm 1 mps 759 mmHg 94%
    05:00 +2°C° 0 mm 2 mps 759 mmHg 94%
    06:00 +2°C° 0 mm 2 mps 759 mmHg 93%
    07:00 +2°C° 0 mm 2 mps 759 mmHg 93%
    08:00 +3°C° 0 mm 2 mps 759 mmHg 92%
    09:00 +3°C° 0 mm 2 mps 760 mmHg 92%
    10:00 +4°C° 0 mm 2 mps 760 mmHg 90%
    11:00 +5°C° 0 mm 2 mps 759 mmHg 88%
    12:00 +6°C° 0 mm 2 mps 759 mmHg 86%
    13:00 +6°C° 0 mm 2 mps 759 mmHg 88%
    14:00 +6°C° 0 mm 2 mps 759 mmHg 89%
    15:00 +6°C° 0 mm 2 mps 759 mmHg 90%
    16:00 +6°C° 0 mm 2 mps 759 mmHg 91%
    17:00 +5°C° 0 mm 2 mps 758 mmHg 93%
    18:00 +5°C° 0 mm 2 mps 758 mmHg 94%
    19:00 +5°C° 0 mm 2 mps 758 mmHg 94%
    20:00 +5°C° 0 mm 2 mps 758 mmHg 94%
    21:00 +5°C° 0 mm 2 mps 758 mmHg 95%
    22:00 +5°C° 0 mm 2 mps 758 mmHg 95%
    23:00 +5°C° 0 mm 2 mps 758 mmHg 95%

    24 November, Saturday

    Time Temperature Precipitation Wind Pressure Humidity
    00:00 +5°C° 0 mm 2 mps 757 mmHg 95%
    01:00 +5°C° 0 mm 2 mps 757 mmHg 95%
    02:00 +4°C° 0 mm 3 mps 757 mmHg 95%
    03:00 +3°C° 0 mm 3 mps 756 mmHg 96%
    04:00 +4°C° 0 mm 3 mps 756 mmHg 96%
    05:00 +4°C° 0 mm 3 mps 756 mmHg 96%
    06:00 +4°C° 0 mm 3 mps 755 mmHg 96%
    07:00 +4°C° 0 mm 4 mps 755 mmHg 95%
    08:00 +5°C° 0 mm 4 mps 755 mmHg 95%
    09:00 +5°C° 0 mm 4 mps 755 mmHg 94%
    10:00 +6°C° 0.1 mm 4 mps 755 mmHg 91%
    11:00 +6°C° 0.1 mm 4 mps 755 mmHg 89%
    12:00 +7°C° 0.1 mm 4 mps 754 mmHg 86%
    13:00 +7°C° 0.1 mm 4 mps 754 mmHg 86%
    14:00 +7°C° 0.1 mm 4 mps 754 mmHg 87%
    15:00 +6°C° 0.1 mm 4 mps 754 mmHg 88%
    16:00 +6°C° 0.1 mm 4 mps 754 mmHg 89%
    17:00 +6°C° 0.1 mm 4 mps 754 mmHg 90%
    18:00 +6°C° 0.1 mm 4 mps 754 mmHg 92%
    19:00 +6°C° 0 mm 4 mps 754 mmHg 92%
    20:00 +5°C° 0 mm 3 mps 755 mmHg 92%
    21:00 +5°C° 0 mm 3 mps 755 mmHg 92%
    22:00 +5°C° 0 mm 3 mps 755 mmHg 92%
    23:00 +5°C° 0 mm 3 mps 756 mmHg 92%
    Show more